When you browse on this site, cookies collect data to enhance your experience and personalize the content and advertising you see.
Visit our Privacy Policy to learn more. By continuing to use the site, you agree to this use of cookies and data.
  • In Hungary
  • List of Countries
  • For 7 days
  • Water Temperature
  • Weather Map
  • News
  • Weather Widgets
  • user-avatar
    Login

    Hourly Weather Yasen'

    Today, 6 April, Monday

    Time Temperature Precipitation Wind Pressure Humidity
    00:00 +3°C° 0 mm 2 mps 719 mmHg 83%
    01:00 +2°C° 0 mm 3 mps 719 mmHg 83%
    02:00 +1°C° 0 mm 3 mps 719 mmHg 84%
    03:00 +2°C° 0 mm 2 mps 719 mmHg 85%
    04:00 +2°C° 0 mm 2 mps 719 mmHg 85%
    05:00 +2°C° 0 mm 2 mps 719 mmHg 84%
    06:00 +2°C° 0 mm 2 mps 719 mmHg 83%
    07:00 +2°C° 0 mm 2 mps 720 mmHg 82%
    08:00 +3°C° 0 mm 2 mps 720 mmHg 84%
    09:00 +5°C° 0 mm 2 mps 721 mmHg 83%
    10:00 +6°C° 0 mm 2 mps 721 mmHg 89%
    11:00 +8°C° 0 mm 2 mps 722 mmHg 93%
    12:00 +9°C° 0 mm 2 mps 722 mmHg 93%
    13:00 +9°C° 0 mm 2 mps 722 mmHg 94%
    14:00 +9°C° 0.2 mm 2 mps 722 mmHg 99%
    15:00 +9°C° 0.7 mm 2 mps 722 mmHg 100%
    16:00 +9°C° 0.2 mm 3 mps 722 mmHg 100%
    17:00 +9°C° 0.6 mm 2 mps 722 mmHg 97%
    18:00 +9°C° 0.5 mm 2 mps 722 mmHg 98%
    19:00 +8°C° 0.2 mm 2 mps 722 mmHg 99%
    20:00 +7°C° 0 mm 2 mps 721 mmHg 100%
    21:00 +7°C° 0 mm 1 mps 721 mmHg 100%
    22:00 +8°C° 0 mm 1 mps 721 mmHg 91%
    23:00 +8°C° 0 mm 1 mps 722 mmHg 81%

    Tomorrow, 7 April, Tuesday

    Time Temperature Precipitation Wind Pressure Humidity
    00:00 +8°C° 0 mm 1 mps 722 mmHg 71%
    01:00 +8°C° 0 mm 1 mps 721 mmHg 58%
    02:00 +7°C° 0 mm 1 mps 721 mmHg 55%
    03:00 +7°C° 0 mm 1 mps 721 mmHg 56%
    04:00 +6°C° 0 mm 1 mps 721 mmHg 61%
    05:00 +6°C° 0 mm 1 mps 721 mmHg 68%
    06:00 +5°C° 0 mm 2 mps 721 mmHg 69%
    07:00 +7°C° 0 mm 1 mps 722 mmHg 65%
    08:00 +7°C° 0 mm 1 mps 722 mmHg 77%
    09:00 +9°C° 0 mm 1 mps 722 mmHg 77%
    10:00 +10°C° 0 mm 1 mps 723 mmHg 72%
    11:00 +10°C° 0 mm 2 mps 723 mmHg 75%
    12:00 +12°C° 0 mm 2 mps 723 mmHg 76%
    13:00 +12°C° 0 mm 2 mps 723 mmHg 77%
    14:00 +12°C° 0 mm 2 mps 722 mmHg 80%
    15:00 +12°C° 0 mm 2 mps 722 mmHg 81%
    16:00 +12°C° 0 mm 2 mps 722 mmHg 82%
    17:00 +12°C° 0 mm 2 mps 722 mmHg 84%
    18:00 +10°C° 0 mm 2 mps 721 mmHg 86%
    19:00 +9°C° 0 mm 2 mps 721 mmHg 92%
    20:00 +9°C° 0 mm 1 mps 721 mmHg 89%
    21:00 +9°C° 0 mm 1 mps 721 mmHg 86%
    22:00 +9°C° 0 mm 1 mps 721 mmHg 90%
    23:00 +9°C° 0 mm 1 mps 721 mmHg 89%

    Day after tomorrow, 8 April, Wednesday

    Time Temperature Precipitation Wind Pressure Humidity
    00:00 +9°C° 0 mm 1 mps 721 mmHg 87%
    01:00 +9°C° 0 mm 1 mps 720 mmHg 86%
    02:00 +9°C° 0 mm 1 mps 720 mmHg 84%
    03:00 +8°C° 0 mm 1 mps 720 mmHg 83%
    04:00 +8°C° 0 mm 1 mps 720 mmHg 82%
    05:00 +8°C° 0 mm 1 mps 720 mmHg 82%
    06:00 +8°C° 0 mm 1 mps 719 mmHg 82%
    07:00 +8°C° 0 mm 1 mps 719 mmHg 84%
    08:00 +7°C° 0 mm 0 mps 719 mmHg 92%
    09:00 +8°C° 0 mm 0 mps 719 mmHg 92%
    10:00 +10°C° 0 mm 1 mps 719 mmHg 95%
    11:00 +11°C° 0 mm 1 mps 719 mmHg 94%
    12:00 +11°C° 0 mm 1 mps 719 mmHg 94%
    13:00 +12°C° 0 mm 1 mps 719 mmHg 92%
    14:00 +13°C° 0 mm 2 mps 719 mmHg 88%
    15:00 +13°C° 0 mm 2 mps 718 mmHg 92%
    16:00 +13°C° 0 mm 2 mps 718 mmHg 92%
    17:00 +12°C° 0 mm 2 mps 718 mmHg 91%
    18:00 +12°C° 0 mm 2 mps 717 mmHg 91%
    19:00 +11°C° 0 mm 1 mps 717 mmHg 97%
    20:00 +9°C° 0 mm 0 mps 717 mmHg 97%
    21:00 +9°C° 0 mm 0 mps 716 mmHg 97%
    22:00 +9°C° 0 mm 1 mps 716 mmHg 95%
    23:00 +9°C° 0 mm 1 mps 716 mmHg 92%

    9 April, Thursday

    Time Temperature Precipitation Wind Pressure Humidity
    00:00 +9°C° 0 mm 1 mps 716 mmHg 91%
    01:00 +9°C° 0 mm 1 mps 715 mmHg 87%
    02:00 +9°C° 0 mm 1 mps 715 mmHg 84%
    03:00 +9°C° 0 mm 1 mps 715 mmHg 83%
    04:00 +9°C° 0 mm 1 mps 714 mmHg 83%
    05:00 +9°C° 0 mm 1 mps 714 mmHg 84%
    06:00 +7°C° 0 mm 2 mps 714 mmHg 83%
    07:00 +7°C° 0 mm 3 mps 714 mmHg 85%
    08:00 +8°C° 0 mm 3 mps 714 mmHg 90%
    09:00 +10°C° 0 mm 3 mps 714 mmHg 86%
    10:00 +12°C° 0 mm 2 mps 714 mmHg 81%
    11:00 +13°C° 0 mm 2 mps 714 mmHg 74%
    12:00 +14°C° 0 mm 2 mps 714 mmHg 69%
    13:00 +15°C° 0 mm 2 mps 714 mmHg 67%
    14:00 +15°C° 0 mm 2 mps 714 mmHg 69%
    15:00 +14°C° 0 mm 3 mps 713 mmHg 72%
    16:00 +14°C° 0 mm 3 mps 713 mmHg 76%
    17:00 +13°C° 0 mm 3 mps 712 mmHg 76%
    18:00 +12°C° 0 mm 3 mps 712 mmHg 80%
    19:00 +12°C° 0 mm 2 mps 711 mmHg 84%
    20:00 +10°C° 0 mm 2 mps 711 mmHg 84%
    21:00 +9°C° 0 mm 3 mps 711 mmHg 86%
    22:00 +7°C° 0 mm 4 mps 710 mmHg 91%
    23:00 +7°C° 0 mm 6 mps 710 mmHg 94%

    10 April, Friday

    Time Temperature Precipitation Wind Pressure Humidity
    00:00 +5°C° 0 mm 6 mps 710 mmHg 94%
    01:00 +5°C° 0 mm 6 mps 710 mmHg 95%
    02:00 +6°C° 0 mm 5 mps 710 mmHg 95%
    03:00 +6°C° 0 mm 5 mps 710 mmHg 95%
    04:00 +6°C° 0 mm 5 mps 710 mmHg 95%
    05:00 +6°C° 0 mm 4 mps 710 mmHg 96%
    06:00 +6°C° 0 mm 4 mps 710 mmHg 98%
    07:00 +6°C° 0 mm 4 mps 710 mmHg 99%
    08:00 +8°C° 0 mm 4 mps 711 mmHg 96%
    09:00 +10°C° 0 mm 4 mps 711 mmHg 96%
    10:00 +7°C° 0.1 mm 5 mps 711 mmHg 100%
    11:00 +8°C° 0.1 mm 4 mps 711 mmHg 100%
    12:00 +8°C° 0 mm 4 mps 712 mmHg 100%
    13:00 +9°C° 0 mm 5 mps 712 mmHg 95%
    14:00 +9°C° 0.1 mm 5 mps 712 mmHg 100%
    15:00 +8°C° 0.3 mm 6 mps 712 mmHg 93%
    16:00 +8°C° 0 mm 5 mps 712 mmHg 89%
    17:00 +8°C° 0 mm 5 mps 712 mmHg 89%
    18:00 +7°C° 0 mm 4 mps 712 mmHg 90%
    19:00 +7°C° 0 mm 3 mps 712 mmHg 96%
    20:00 +6°C° 0 mm 2 mps 712 mmHg 100%
    21:00 +6°C° 0 mm 2 mps 712 mmHg 100%
    22:00 +6°C° 0 mm 2 mps 712 mmHg 100%
    23:00 +5°C° 0 mm 2 mps 713 mmHg 100%

    11 April, Saturday

    Time Temperature Precipitation Wind Pressure Humidity
    00:00 +6°C° 0 mm 1 mps 713 mmHg 100%
    01:00 +6°C° 0 mm 1 mps 712 mmHg 100%
    02:00 +5°C° 0 mm 1 mps 712 mmHg 100%
    03:00 +5°C° 0 mm 1 mps 712 mmHg 100%
    04:00 +5°C° 0 mm 1 mps 712 mmHg 99%
    05:00 +4°C° 0 mm 1 mps 712 mmHg 96%
    06:00 +4°C° 0 mm 1 mps 712 mmHg 92%
    07:00 +3°C° 0 mm 0 mps 712 mmHg 94%
    08:00 +4°C° 0 mm 0 mps 712 mmHg 94%
    09:00 +6°C° 0 mm 0 mps 712 mmHg 93%
    10:00 +8°C° 0 mm 1 mps 713 mmHg 91%
    11:00 +9°C° 0 mm 1 mps 713 mmHg 91%
    12:00 +10°C° 0 mm 1 mps 713 mmHg 94%
    13:00 +9°C° 0 mm 2 mps 713 mmHg 93%
    14:00 +10°C° 0 mm 2 mps 712 mmHg 94%
    15:00 +10°C° 0.1 mm 2 mps 712 mmHg 98%
    16:00 +10°C° 0.1 mm 2 mps 712 mmHg 100%
    17:00 +9°C° 0.1 mm 3 mps 711 mmHg 100%
    18:00 +9°C° 0.1 mm 3 mps 711 mmHg 100%
    19:00 +8°C° 0.1 mm 2 mps 711 mmHg 100%
    20:00 +8°C° 0 mm 2 mps 711 mmHg 100%
    21:00 +8°C° 0 mm 1 mps 710 mmHg 100%
    22:00 +8°C° 0 mm 1 mps 710 mmHg 94%
    23:00 +7°C° 0 mm 2 mps 710 mmHg 84%
    Show more